| time (UTC) | temp C | wind direction | speed KPH | gust KPH | rain 1hr cm | rain 24hr cm | rain mn cm | humidity % | barometer mb |
| 20260904095317 | 23 | 253 | 0.0 | 1.6 | 0.00 | 0.00 | 0.00 | 76 | 1008.9 |
| 20260904095037 | 23 | 339 | 3.2 | 3.2 | 0.00 | 0.00 | 0.00 | 76 | 1008.9 |
| 20260904094309 | 23 | 290 | 0.0 | 1.6 | 0.00 | 0.00 | 0.00 | 76 | 1009.2 |
| 20260904093805 | 23 | 322 | 0.0 | 4.8 | 0.00 | 0.00 | 0.00 | 76 | 1009.3 |
| 20260904093301 | 24 | 315 | 0.0 | 1.6 | 0.00 | 0.00 | 0.00 | 75 | 1009.2 |
| 20260904092757 | 24 | 61 | 1.6 | 4.8 | 0.00 | 0.00 | 0.00 | 74 | 1009.1 |
| 20260904092253 | 23 | 253 | 1.6 | 1.6 | 0.00 | 0.00 | 0.00 | 75 | 1009.0 |
| 20260904091749 | 23 | 315 | 0.0 | 1.6 | 0.00 | 0.00 | 0.00 | 75 | 1009.0 |
| 20260904091245 | 24 | 265 | 1.6 | 1.6 | 0.00 | 0.00 | 0.00 | 74 | 1009.2 |
| 20260904090741 | 24 | 338 | 0.0 | 3.2 | 0.00 | 0.00 | 0.00 | 73 | 1009.2 |
| 20260904090238 | 24 | 277 | 4.8 | 6.4 | 0.00 | 0.00 | 0.00 | 73 | 1009.1 |
| 20260904085734 | 24 | 297 | 0.0 | 3.2 | 0.00 | 0.00 | 0.00 | 72 | 1009.1 |
| 20260904085230 | 24 | 275 | 1.6 | 4.8 | 0.00 | 0.00 | 0.00 | 72 | 1009.1 |
| 20260904084726 | 24 | 356 | 3.2 | 4.8 | 0.00 | 0.00 | 0.00 | 72 | 1009.2 |
| 20260904084222 | 25 | 287 | 4.8 | 6.4 | 0.00 | 0.00 | 0.00 | 69 | 1008.8 |
| 20260904083718 | 25 | 93 | 3.2 | 6.4 | 0.00 | 0.00 | 0.00 | 67 | 1008.8 |
| 20260904083435 | 25 | 93 | 4.8 | 6.4 | 0.00 | 0.00 | 0.00 | 68 | 1009.1 |
| 20260904082710 | 25 | 137 | 0.0 | 3.2 | 0.00 | 0.00 | 0.00 | 68 | 1009.0 |
| 20260904082206 | 26 | 107 | 3.2 | 4.8 | 0.00 | 0.00 | 0.00 | 67 | 1009.1 |
| 20260904081702 | 26 | 116 | 3.2 | 6.4 | 0.00 | 0.00 | 0.00 | 67 | 1008.8 |
| 20260904081158 | 26 | 153 | 1.6 | 4.8 | 0.00 | 0.00 | 0.00 | 67 | 1009.1 |
| 20260904080914 | 26 | 87 | 3.2 | 6.4 | 0.00 | 0.00 | 0.00 | 67 | 1009.0 |
| 20260904080151 | 26 | 85 | 4.8 | 4.8 | 0.00 | 0.00 | 0.00 | 67 | 1009.1 |
| 20260904075646 | 25 | 97 | 6.4 | 6.4 | 0.00 | 0.00 | 0.00 | 67 | 1009.3 |
| 20260904075142 | 25 | 92 | 3.2 | 4.8 | 0.00 | 0.00 | 0.00 | 68 | 1009.2 |
| 20260904074638 | 25 | 89 | 0.0 | 1.6 | 0.00 | 0.00 | 0.00 | 69 | 1009.3 |
| 20260904074133 | 25 | 343 | 0.0 | 1.6 | 0.00 | 0.00 | 0.00 | 70 | 1009.2 |
| 20260904073629 | 25 | 291 | 0.0 | 3.2 | 0.00 | 0.00 | 0.00 | 69 | 1009.5 |
| 20260904073618 | 25 | 322 | 0.0 | 1.6 | 0.00 | 0.00 | 0.00 | 68 | 1009.3 |
| 20260904072621 | 25 | 124 | 0.0 | 1.6 | 0.00 | 0.00 | 0.00 | 67 | 1009.1 |
| 20260904072117 | 25 | 183 | 1.6 | 3.2 | 0.00 | 0.00 | 0.00 | 67 | 1009.1 |
| 20260904071613 | 25 | 183 | 3.2 | 3.2 | 0.00 | 0.00 | 0.00 | 67 | 1009.4 |
| 20260904071109 | 25 | 157 | 0.0 | 3.2 | 0.00 | 0.00 | 0.00 | 68 | 1009.3 |
| 20260904070605 | 25 | 164 | 0.0 | 3.2 | 0.00 | 0.00 | 0.00 | 68 | 1009.5 |
| 20260904070101 | 25 | 144 | 0.0 | 1.6 | 0.00 | 0.00 | 0.00 | 67 | 1009.2 |
| 20260904065557 | 25 | 283 | 0.0 | 0.0 | 0.00 | 0.00 | 0.00 | 68 | 1009.6 |
| 20260904065053 | 25 | 283 | 0.0 | 0.0 | 0.00 | 0.00 | 0.00 | 67 | 1009.6 |
| 20260904064549 | 25 | 242 | 0.0 | 1.6 | 0.00 | 0.00 | 0.00 | 67 | 1009.5 |
| 20260904064045 | 25 | 135 | 0.0 | 0.0 | 0.00 | 0.00 | 0.00 | 67 | 1009.6 |
| 20260904063541 | 26 | 131 | 0.0 | 1.6 | 0.00 | 0.00 | 0.00 | 66 | 1009.5 |
| 20260904063037 | 26 | 284 | 0.0 | 3.2 | 0.00 | 0.00 | 0.00 | 66 | 1009.4 |
| 20260904062533 | 26 | 287 | 1.6 | 3.2 | 0.00 | 0.00 | 0.00 | 65 | 1009.6 |
| 20260904062029 | 26 | 333 | 1.6 | 3.2 | 0.00 | 0.00 | 0.00 | 66 | 1009.3 |
| 20260904061525 | 26 | 345 | 1.6 | 4.8 | 0.00 | 0.00 | 0.00 | 66 | 1009.5 |
| 20260904061245 | 26 | 304 | 0.0 | 3.2 | 0.00 | 0.00 | 0.00 | 66 | 1009.5 |
| 20260904060738 | 26 | 309 | 1.6 | 3.2 | 0.00 | 0.00 | 0.00 | 66 | 1009.2 |
| 20260904060505 | 26 | 299 | 3.2 | 8.0 | 0.00 | 0.00 | 0.00 | 65 | 1009.4 |
| 20260904055509 | 26 | 301 | 1.6 | 6.4 | 0.00 | 0.00 | 0.00 | 65 | 1009.4 |
| 20260904055005 | 26 | 299 | 1.6 | 4.8 | 0.00 | 0.00 | 0.00 | 65 | 1009.4 |
| 20260904054725 | 26 | 276 | 1.6 | 3.2 | 0.00 | 0.00 | 0.00 | 65 | 1009.3 |
| 20260904053958 | 26 | 269 | 0.0 | 3.2 | 0.00 | 0.00 | 0.00 | 65 | 1009.3 |
| 20260904053453 | 26 | 249 | 0.0 | 3.2 | 0.00 | 0.00 | 0.00 | 64 | 1009.1 |
| 20260904052949 | 26 | 305 | 1.6 | 3.2 | 0.00 | 0.00 | 0.00 | 64 | 1009.2 |
| 20260904052445 | 26 | 282 | 1.6 | 3.2 | 0.00 | 0.00 | 0.00 | 63 | 1009.4 |
| 20260904051941 | 27 | 246 | 0.0 | 3.2 | 0.00 | 0.00 | 0.00 | 62 | 1009.0 |
| 20260904051437 | 26 | 224 | 0.0 | 1.6 | 0.00 | 0.00 | 0.00 | 62 | 1009.2 |
| 20260904050933 | 27 | 293 | 0.0 | 1.6 | 0.00 | 0.00 | 0.00 | 62 | 1009.3 |
| 20260904050430 | 27 | 269 | 0.0 | 3.2 | 0.00 | 0.00 | 0.00 | 62 | 1009.4 |
| 20260904045926 | 27 | 62 | 1.6 | 3.2 | 0.00 | 0.00 | 0.00 | 62 | 1009.5 |
| 20260904045421 | 27 | 276 | 3.2 | 4.8 | 0.00 | 0.00 | 0.00 | 61 | 1009.7 |
| 20260904044917 | 27 | 22 | 0.0 | 6.4 | 0.00 | 0.00 | 0.00 | 61 | 1009.9 |
| 20260904044634 | 27 | 3 | 3.2 | 8.0 | 0.00 | 0.00 | 0.00 | 61 | 1009.4 |
| 20260904043910 | 27 | 15 | 0.0 | 1.6 | 0.00 | 0.00 | 0.00 | 61 | 1009.5 |
| 20260904043630 | 27 | 245 | 0.0 | 6.4 | 0.00 | 0.00 | 0.00 | 61 | 1009.7 |
| 20260904042901 | 27 | 0 | 3.2 | 8.0 | 0.00 | 0.00 | 0.00 | 61 | 1009.6 |
| 20260904042358 | 27 | 0 | 4.8 | 6.4 | 0.00 | 0.00 | 0.00 | 61 | 1009.9 |
| 20260904041854 | 27 | 281 | 3.2 | 9.7 | 0.00 | 0.00 | 0.00 | 61 | 1009.9 |
| 20260904041350 | 27 | 303 | 1.6 | 12.9 | 0.00 | 0.00 | 0.00 | 61 | 1009.7 |
| 20260904040846 | 27 | 302 | 4.8 | 6.4 | 0.00 | 0.00 | 0.00 | 61 | 1009.8 |
| 20260904040602 | 27 | 297 | 4.8 | 9.7 | 0.00 | 0.00 | 0.00 | 61 | 1009.6 |
| 20260904035838 | 27 | 295 | 6.4 | 8.0 | 0.00 | 0.00 | 0.00 | 60 | 1009.5 |
| 20260904035334 | 27 | 283 | 8.0 | 17.7 | 0.00 | 0.00 | 0.00 | 60 | 1009.6 |
| 20260904034829 | 27 | 326 | 9.7 | 12.9 | 0.00 | 0.00 | 0.00 | 59 | 1009.5 |
| 20260904034325 | 27 | 317 | 3.2 | 16.1 | 0.00 | 0.00 | 0.00 | 59 | 1009.6 |
| 20260904033821 | 27 | 307 | 8.0 | 12.9 | 0.00 | 0.00 | 0.00 | 59 | 1009.6 |
| 20260904033317 | 27 | 317 | 4.8 | 17.7 | 0.00 | 0.00 | 0.00 | 59 | 1009.4 |
| 20260904032813 | 28 | 304 | 8.0 | 22.5 | 0.00 | 0.00 | 0.00 | 58 | 1009.3 |
| 20260904032309 | 28 | 353 | 11.3 | 12.9 | 0.00 | 0.00 | 0.00 | 57 | 1009.2 |
| 20260904031805 | 28 | 333 | 9.7 | 17.7 | 0.00 | 0.00 | 0.00 | 57 | 1009.3 |
| 20260904031521 | 28 | 337 | 6.4 | 14.5 | 0.00 | 0.00 | 0.00 | 56 | 1008.9 |
| 20260904030757 | 28 | 314 | 0.0 | 3.2 | 0.00 | 0.00 | 0.00 | 56 | 1008.9 |
| 20260904030746 | 28 | 225 | 3.2 | 4.8 | 0.00 | 0.00 | 0.00 | 55 | 1008.8 |
| 20260904025750 | 28 | 269 | 0.0 | 6.4 | 0.00 | 0.00 | 0.00 | 56 | 1008.9 |
| 20260904025246 | 28 | 275 | 3.2 | 4.8 | 0.00 | 0.00 | 0.00 | 56 | 1008.8 |
| 20260904024742 | 28 | 233 | 1.6 | 6.4 | 0.00 | 0.00 | 0.00 | 56 | 1008.3 |
| 20260904024238 | 28 | 252 | 1.6 | 4.8 | 0.00 | 0.00 | 0.00 | 56 | 1008.1 |
| 20260904023734 | 28 | 295 | 3.2 | 3.2 | 0.00 | 0.00 | 0.00 | 56 | 1008.1 |
| 20260904023454 | 28 | 208 | 3.2 | 4.8 | 0.00 | 0.00 | 0.00 | 55 | 1008.0 |
| 20260904022726 | 28 | 243 | 3.2 | 4.8 | 0.00 | 0.00 | 0.00 | 54 | 1007.9 |
| 20260904022222 | 28 | 75 | 3.2 | 9.7 | 0.00 | 0.00 | 0.00 | 54 | 1007.8 |
| 20260904021718 | 28 | 73 | 0.0 | 12.9 | 0.00 | 0.00 | 0.00 | 54 | 1007.7 |
| 20260904021214 | 28 | 37 | 3.2 | 9.7 | 0.00 | 0.00 | 0.00 | 55 | 1007.5 |
| 20260904020710 | 28 | 34 | 3.2 | 8.0 | 0.00 | 0.00 | 0.00 | 55 | 1007.7 |
| 20260904020655 | 28 | 35 | 9.7 | 14.5 | 0.00 | 0.00 | 0.00 | 55 | 1007.6 |
| 20260904015702 | 28 | 74 | 4.8 | 12.9 | 0.00 | 0.00 | 0.00 | 55 | 1007.6 |
| 20260904015158 | 28 | 61 | 6.4 | 22.5 | 0.00 | 0.00 | 0.00 | 55 | 1007.5 |
| 20260904014654 | 28 | 84 | 9.7 | 22.5 | 0.00 | 0.00 | 0.00 | 55 | 1007.2 |
| 20260904014150 | 29 | 23 | 9.7 | 12.9 | 0.00 | 0.00 | 0.00 | 54 | 1007.1 |
| 20260904013646 | 29 | 336 | 3.2 | 16.1 | 0.00 | 0.00 | 0.00 | 54 | 1007.1 |
| 20260904013142 | 29 | 56 | 9.7 | 19.3 | 0.00 | 0.00 | 0.00 | 54 | 1007.1 |
| 20260904012638 | 29 | 63 | 12.9 | 33.8 | 0.00 | 0.00 | 0.00 | 54 | 1007.0 |
| 20260904012134 | 29 | 52 | 11.3 | 24.1 | 0.00 | 0.00 | 0.00 | 55 | 1006.9 |
| 20260904011630 | 29 | 33 | 12.9 | 19.3 | 0.00 | 0.00 | 0.00 | 55 | 1006.9 |
| 20260904011126 | 29 | 37 | 12.9 | 19.3 | 0.00 | 0.00 | 0.00 | 54 | 1006.6 |
| 20260904010622 | 29 | 80 | 14.5 | 27.4 | 0.00 | 0.00 | 0.00 | 54 | 1006.6 |
| 20260904010118 | 30 | 77 | 9.7 | 25.7 | 0.00 | 0.00 | 0.00 | 52 | 1006.5 |
| 20260904005614 | 30 | 85 | 11.3 | 22.5 | 0.00 | 0.00 | 0.00 | 50 | 1006.3 |
| 20260904005331 | 30 | 55 | 12.9 | 22.5 | 0.00 | 0.00 | 0.00 | 50 | 1006.4 |
| 20260904004606 | 30 | 62 | 9.7 | 27.4 | 0.00 | 0.00 | 0.00 | 51 | 1006.4 |
| 20260904004322 | 30 | 66 | 6.4 | 27.4 | 0.00 | 0.00 | 0.00 | 52 | 1006.5 |
| 20260904003558 | 31 | 84 | 17.7 | 17.7 | 0.00 | 0.00 | 0.00 | 48 | 1006.0 |
| 20260904003054 | 31 | 64 | 11.3 | 22.5 | 0.00 | 0.00 | 0.00 | 47 | 1006.2 |
| 20260904002550 | 31 | 51 | 4.8 | 20.9 | 0.00 | 0.00 | 0.00 | 46 | 1005.9 |
| 20260904002046 | 31 | 104 | 9.7 | 24.1 | 0.00 | 0.00 | 0.00 | 45 | 1005.8 |
| 20260904001542 | 31 | 56 | 19.3 | 19.3 | 0.00 | 0.00 | 0.00 | 46 | 1005.7 |
| 20260904001259 | 31 | 86 | 4.8 | 17.7 | 0.00 | 0.00 | 0.00 | 48 | 1006.0 |
| 20260904000534 | 31 | 99 | 6.4 | 22.5 | 0.00 | 0.00 | 0.00 | 48 | 1005.8 |
| 20260904000030 | 31 | 105 | 12.9 | 20.9 | 0.00 | 0.00 | 0.00 | 49 | 1006.3 |
| 20260903235526 | 31 | 69 | 17.7 | 30.6 | 0.00 | 0.00 | 0.00 | 50 | 1006.2 |
| 20260903235022 | 31 | 101 | 12.9 | 24.1 | 0.00 | 0.00 | 0.00 | 49 | 1006.0 |
| 20260903234517 | 31 | 102 | 11.3 | 24.1 | 0.00 | 0.00 | 0.00 | 49 | 1006.2 |
| 20260903234013 | 32 | 103 | 22.5 | 25.7 | 0.00 | 0.00 | 0.00 | 47 | 1005.9 |
| 20260903233509 | 31 | 136 | 6.4 | 17.7 | 0.00 | 0.00 | 0.00 | 43 | 1005.9 |
| 20260903233005 | 31 | 105 | 4.8 | 22.5 | 0.00 | 0.00 | 0.00 | 43 | 1005.8 |
| 20260903232501 | 31 | 105 | 8.0 | 17.7 | 0.00 | 0.00 | 0.00 | 43 | 1005.7 |
| 20260903232218 | 31 | 77 | 8.0 | 12.9 | 0.00 | 0.00 | 0.00 | 43 | 1005.6 |
| 20260903231716 | 32 | 138 | 9.7 | 12.9 | 0.00 | 0.00 | 0.00 | 43 | 1005.7 |
| 20260903230949 | 31 | 101 | 3.2 | 11.3 | 0.00 | 0.00 | 0.00 | 43 | 1005.8 |
| 20260903230445 | 32 | 89 | 3.2 | 19.3 | 0.00 | 0.00 | 0.00 | 43 | 1005.8 |
| 20260903225941 | 32 | 98 | 8.0 | 14.5 | 0.00 | 0.00 | 0.00 | 43 | 1005.7 |
| 20260903225437 | 32 | 112 | 9.7 | 19.3 | 0.00 | 0.00 | 0.00 | 43 | 1005.7 |
| 20260903224933 | 31 | 109 | 3.2 | 9.7 | 0.00 | 0.00 | 0.00 | 43 | 1005.7 |
| 20260903224429 | 31 | 148 | 6.4 | 9.7 | 0.00 | 0.00 | 0.00 | 43 | 1005.6 |
| 20260903223925 | 32 | 167 | 4.8 | 11.3 | 0.00 | 0.00 | 0.00 | 42 | 1005.5 |
| 20260903223421 | 32 | 131 | 9.7 | 17.7 | 0.00 | 0.00 | 0.00 | 42 | 1005.5 |
| 20260903222917 | 32 | 141 | 8.0 | 19.3 | 0.00 | 0.00 | 0.00 | 41 | 1005.5 |
| 20260903222413 | 31 | 93 | 6.4 | 12.9 | 0.00 | 0.00 | 0.00 | 41 | 1005.5 |
| 20260903222133 | 31 | 97 | 8.0 | 14.5 | 0.00 | 0.00 | 0.00 | 42 | 1005.6 |
| 20260903221405 | 31 | 142 | 9.7 | 14.5 | 0.00 | 0.00 | 0.00 | 42 | 1005.9 |
| 20260903220901 | 32 | 113 | 8.0 | 11.3 | 0.00 | 0.00 | 0.00 | 42 | 1005.9 |
| 20260903220357 | 31 | 166 | 4.8 | 11.3 | 0.00 | 0.00 | 0.00 | 42 | 1006.3 |
| 20260903215853 | 32 | 71 | 9.7 | 17.7 | 0.00 | 0.00 | 0.00 | 42 | 1005.8 |
| 20260903215349 | 32 | 88 | 9.7 | 12.9 | 0.00 | 0.00 | 0.00 | 42 | 1006.1 |
| 20260903214341 | 32 | 139 | 6.4 | 17.7 | 0.00 | 0.00 | 0.00 | 41 | 1006.1 |
| 20260903213837 | 31 | 186 | 8.0 | 12.9 | 0.00 | 0.00 | 0.00 | 42 | 1006.3 |
| 20260903213554 | 31 | 182 | 3.2 | 12.9 | 0.00 | 0.00 | 0.00 | 43 | 1006.5 |
| 20260903212829 | 32 | 332 | 0.0 | 12.9 | 0.00 | 0.00 | 0.00 | 41 | 1006.2 |
| 20260903212325 | 31 | 44 | 3.2 | 9.7 | 0.00 | 0.00 | 0.00 | 42 | 1006.5 |
| 20260903211821 | 31 | 34 | 9.7 | 14.5 | 0.00 | 0.00 | 0.00 | 42 | 1006.7 |
| 20260903211317 | 31 | 51 | 4.8 | 17.7 | 0.00 | 0.00 | 0.00 | 41 | 1006.7 |
| 20260903210813 | 31 | 144 | 6.4 | 14.5 | 0.00 | 0.00 | 0.00 | 41 | 1006.6 |
| 20260903210309 | 31 | 183 | 6.4 | 9.7 | 0.00 | 0.00 | 0.00 | 41 | 1006.6 |
| 20260903205805 | 31 | 116 | 0.0 | 17.7 | 0.00 | 0.00 | 0.00 | 42 | 1006.9 |
| 20260903205301 | 31 | 355 | 1.6 | 8.0 | 0.00 | 0.00 | 0.00 | 44 | 1007.1 |
| 20260903204757 | 31 | 180 | 8.0 | 11.3 | 0.00 | 0.00 | 0.00 | 43 | 1006.9 |
| 20260903204517 | 31 | 92 | 8.0 | 16.1 | 0.00 | 0.00 | 0.00 | 43 | 1007.1 |
| 20260903203749 | 31 | 123 | 3.2 | 19.3 | 0.00 | 0.00 | 0.00 | 42 | 1007.1 |
| 20260903203508 | 31 | 196 | 4.8 | 11.3 | 0.00 | 0.00 | 0.00 | 44 | 1007.2 |
| 20260903203001 | 30 | 58 | 3.2 | 9.7 | 0.00 | 0.00 | 0.00 | 44 | 1007.4 |
| 20260903202237 | 30 | 45 | 3.2 | 11.3 | 0.00 | 0.00 | 0.00 | 43 | 1007.5 |
| 20260903201733 | 31 | 124 | 6.4 | 16.1 | 0.00 | 0.00 | 0.00 | 44 | 1007.8 |
| 20260903201229 | 31 | 72 | 8.0 | 14.5 | 0.00 | 0.00 | 0.00 | 45 | 1007.7 |
| 20260903200725 | 30 | 63 | 4.8 | 17.7 | 0.00 | 0.00 | 0.00 | 46 | 1008.2 |
| 20260903195717 | 31 | 0 | 0.0 | 11.3 | 0.00 | 0.00 | 0.00 | 45 | 1008.3 |
| 20260903195213 | 30 | 332 | 3.2 | 14.5 | 0.00 | 0.00 | 0.00 | 46 | 1008.5 |
| 20260903194709 | 30 | 241 | 0.0 | 4.8 | 0.00 | 0.00 | 0.00 | 46 | 1008.3 |
| 20260903194427 | 30 | 173 | 3.2 | 14.5 | 0.00 | 0.00 | 0.00 | 45 | 1008.5 |
| 20260903193702 | 30 | 155 | 6.4 | 14.5 | 0.00 | 0.00 | 0.00 | 46 | 1008.5 |
| 20260903193647 | 30 | 130 | 6.4 | 12.9 | 0.00 | 0.00 | 0.00 | 47 | 1008.8 |
| 20260903192915 | 30 | 192 | 6.4 | 12.9 | 0.00 | 0.00 | 0.00 | 47 | 1008.8 |
| 20260903192150 | 30 | 70 | 3.2 | 11.3 | 0.00 | 0.00 | 0.00 | 46 | 1008.5 |
| 20260903191645 | 30 | 41 | 1.6 | 11.3 | 0.00 | 0.00 | 0.00 | 47 | 1009.1 |
| 20260903191142 | 29 | 128 | 6.4 | 16.1 | 0.00 | 0.00 | 0.00 | 48 | 1009.3 |
| 20260903190638 | 30 | 109 | 4.8 | 14.5 | 0.00 | 0.00 | 0.00 | 47 | 1009.3 |
| 20260903190133 | 28 | 67 | 6.4 | 12.9 | 0.00 | 0.00 | 0.00 | 49 | 1009.7 |
| 20260903185629 | 28 | 25 | 6.4 | 8.0 | 0.00 | 0.00 | 0.00 | 48 | 1009.8 |
| 20260903185125 | 29 | 96 | 6.4 | 14.5 | 0.00 | 0.00 | 0.00 | 49 | 1009.6 |
| 20260903184843 | 29 | 154 | 9.7 | 14.5 | 0.00 | 0.00 | 0.00 | 49 | 1010.0 |
| 20260903184117 | 28 | 135 | 3.2 | 14.5 | 0.00 | 0.00 | 0.00 | 50 | 1009.9 |
| 20260903183613 | 29 | 103 | 16.1 | 16.1 | 0.00 | 0.00 | 0.00 | 49 | 1010.0 |
| 20260903183332 | 28 | 76 | 9.7 | 20.9 | 0.00 | 0.00 | 0.00 | 49 | 1010.3 |
| 20260903182605 | 29 | 103 | 9.7 | 20.9 | 0.00 | 0.00 | 0.00 | 49 | 1009.9 |
| 20260903182101 | 29 | 78 | 3.2 | 12.9 | 0.00 | 0.00 | 0.00 | 49 | 1010.3 |
| 20260903181821 | 28 | 158 | 3.2 | 8.0 | 0.00 | 0.00 | 0.00 | 50 | 1010.5 |
| 20260903181053 | 29 | 85 | 9.7 | 14.5 | 0.00 | 0.00 | 0.00 | 49 | 1010.6 |
| 20260903180549 | 29 | 111 | 6.4 | 14.5 | 0.00 | 0.00 | 0.00 | 50 | 1010.5 |
| 20260903180045 | 28 | 124 | 14.5 | 16.1 | 0.00 | 0.00 | 0.00 | 51 | 1010.4 |
| 20260903175802 | 28 | 68 | 4.8 | 9.7 | 0.00 | 0.00 | 0.00 | 51 | 1010.5 |
| 20260903175039 | 29 | 98 | 11.3 | 17.7 | 0.00 | 0.00 | 0.00 | 51 | 1010.5 |
| 20260903174758 | 28 | 68 | 4.8 | 11.3 | 0.00 | 0.00 | 0.00 | 51 | 1010.8 |
| 20260903174251 | 28 | 7 | 6.4 | 11.3 | 0.00 | 0.00 | 0.00 | 52 | 1011.0 |
| 20260903173526 | 28 | 60 | 3.2 | 9.7 | 0.00 | 0.00 | 0.00 | 52 | 1010.8 |
| 20260903173241 | 28 | 50 | 3.2 | 12.9 | 0.00 | 0.00 | 0.00 | 53 | 1011.1 |
| 20260903172518 | 28 | 104 | 6.4 | 12.9 | 0.00 | 0.00 | 0.00 | 52 | 1011.0 |
| 20260903172014 | 28 | 82 | 3.2 | 12.9 | 0.00 | 0.00 | 0.00 | 54 | 1011.0 |
| 20260903171730 | 28 | 114 | 6.4 | 11.3 | 0.00 | 0.00 | 0.00 | 54 | 1011.0 |
| 20260903171006 | 28 | 107 | 3.2 | 12.9 | 0.00 | 0.00 | 0.00 | 53 | 1011.1 |
| 20260903170502 | 27 | 126 | 1.6 | 4.8 | 0.00 | 0.00 | 0.00 | 55 | 1011.3 |
| 20260903165958 | 27 | 254 | 3.2 | 6.4 | 0.00 | 0.00 | 0.00 | 56 | 1011.2 |
| 20260903165454 | 27 | 65 | 4.8 | 4.8 | 0.00 | 0.00 | 0.00 | 54 | 1010.9 |
| 20260903164949 | 27 | 8 | 0.0 | 6.4 | 0.00 | 0.00 | 0.00 | 56 | 1011.4 |
| 20260903164446 | 27 | 97 | 3.2 | 9.7 | 0.00 | 0.00 | 0.00 | 56 | 1011.4 |
| 20260903163942 | 26 | 116 | 0.0 | 3.2 | 0.00 | 0.00 | 0.00 | 58 | 1011.6 |
| 20260903163438 | 27 | 119 | 3.2 | 9.7 | 0.00 | 0.00 | 0.00 | 58 | 1011.5 |
| 20260903162934 | 27 | 78 | 9.7 | 11.3 | 0.00 | 0.00 | 0.00 | 57 | 1011.4 |
| 20260903162654 | 26 | 145 | 3.2 | 4.8 | 0.00 | 0.00 | 0.00 | 57 | 1011.5 |
| 20260903161926 | 26 | 113 | 1.6 | 8.0 | 0.00 | 0.00 | 0.00 | 59 | 1011.8 |
| 20260903161422 | 26 | 22 | 3.2 | 8.0 | 0.00 | 0.00 | 0.00 | 58 | 1011.7 |
| 20260903160918 | 27 | 87 | 6.4 | 12.9 | 0.00 | 0.00 | 0.00 | 58 | 1011.4 |
| 20260903160413 | 26 | 255 | 1.6 | 8.0 | 0.00 | 0.00 | 0.00 | 58 | 1011.7 |
| 20260903160133 | 26 | 10 | 1.6 | 9.7 | 0.00 | 0.00 | 0.00 | 59 | 1011.9 |
| 20260903155405 | 26 | 57 | 0.0 | 6.4 | 0.00 | 0.00 | 0.00 | 60 | 1012.0 |
| 20260903154902 | 26 | 27 | 4.8 | 8.0 | 0.00 | 0.00 | 0.00 | 60 | 1011.7 |
| 20260903154357 | 26 | 306 | 3.2 | 3.2 | 0.00 | 0.00 | 0.00 | 60 | 1011.9 |
| 20260903153853 | 26 | 19 | 4.8 | 8.0 | 0.00 | 0.00 | 0.00 | 60 | 1011.9 |
| 20260903153349 | 26 | 348 | 0.0 | 8.0 | 0.00 | 0.00 | 0.00 | 61 | 1012.0 |
| 20260903152845 | 26 | 349 | 3.2 | 8.0 | 0.00 | 0.00 | 0.00 | 61 | 1011.7 |
| 20260903152603 | 26 | 343 | 0.0 | 3.2 | 0.00 | 0.00 | 0.00 | 62 | 1011.8 |
| 20260903151837 | 26 | 56 | 3.2 | 8.0 | 0.00 | 0.00 | 0.00 | 62 | 1011.8 |
| 20260903151333 | 26 | 350 | 3.2 | 6.4 | 0.00 | 0.00 | 0.00 | 62 | 1011.9 |
| 20260903150829 | 26 | 31 | 3.2 | 8.0 | 0.00 | 0.00 | 0.00 | 63 | 1011.8 |
| 20260903150545 | 26 | 295 | 0.0 | 6.4 | 0.00 | 0.00 | 0.00 | 63 | 1011.8 |
| 20260903145821 | 26 | 37 | 4.8 | 8.0 | 0.00 | 0.00 | 0.00 | 63 | 1012.0 |
| 20260903145317 | 26 | 356 | 1.6 | 11.3 | 0.00 | 0.00 | 0.00 | 64 | 1011.9 |
| 20260903144803 | 26 | 83 | 9.7 | 11.3 | 0.00 | 0.00 | 0.00 | 63 | 1011.2 |
| 20260903144259 | 26 | 313 | 0.0 | 9.7 | 0.00 | 0.00 | 0.00 | 65 | 1011.2 |
| 20260903144019 | 26 | 85 | 4.8 | 9.7 | 0.00 | 0.00 | 0.00 | 65 | 1011.2 |
| 20260903143512 | 26 | 352 | 1.6 | 4.8 | 0.00 | 0.00 | 0.00 | 66 | 1011.2 |
| 20260903142747 | 26 | 28 | 4.8 | 8.0 | 0.00 | 0.00 | 0.00 | 66 | 1011.2 |
| 20260903142243 | 26 | 102 | 3.2 | 6.4 | 0.00 | 0.00 | 0.00 | 66 | 1011.1 |
| 20260903141739 | 26 | 43 | 4.8 | 11.3 | 0.00 | 0.00 | 0.00 | 66 | 1011.2 |
| 20260903141235 | 26 | 335 | 3.2 | 6.4 | 0.00 | 0.00 | 0.00 | 66 | 1011.2 |
| 20260903140731 | 26 | 89 | 0.0 | 4.8 | 0.00 | 0.00 | 0.00 | 66 | 1011.0 |
| 20260903140227 | 26 | 77 | 0.0 | 3.2 | 0.00 | 0.00 | 0.00 | 66 | 1011.1 |
| 20260903135723 | 26 | 121 | 3.2 | 6.4 | 0.00 | 0.00 | 0.00 | 66 | 1011.2 |
| 20260903135218 | 26 | 70 | 3.2 | 6.4 | 0.00 | 0.00 | 0.00 | 66 | 1011.0 |
| 20260903134714 | 26 | 132 | 1.6 | 4.8 | 0.00 | 0.00 | 0.00 | 66 | 1010.8 |
| 20260903134210 | 26 | 108 | 3.2 | 9.7 | 0.00 | 0.00 | 0.00 | 66 | 1011.0 |
| 20260903133706 | 26 | 106 | 6.4 | 8.0 | 0.00 | 0.00 | 0.00 | 66 | 1010.7 |
| 20260903133202 | 26 | 88 | 3.2 | 6.4 | 0.00 | 0.00 | 0.00 | 66 | 1010.7 |
| 20260903132658 | 26 | 111 | 4.8 | 8.0 | 0.00 | 0.00 | 0.00 | 66 | 1010.6 |
| 20260903132154 | 26 | 100 | 4.8 | 8.0 | 0.00 | 0.00 | 0.00 | 66 | 1010.4 |
| 20260903131650 | 26 | 151 | 8.0 | 9.7 | 0.00 | 0.00 | 0.00 | 65 | 1010.6 |
| 20260903131146 | 26 | 147 | 3.2 | 9.7 | 0.00 | 0.00 | 0.00 | 65 | 1010.7 |
| 20260903130642 | 26 | 125 | 3.2 | 6.4 | 0.00 | 0.00 | 0.00 | 64 | 1010.3 |
| 20260903130358 | 26 | 81 | 3.2 | 8.0 | 0.00 | 0.00 | 0.00 | 64 | 1010.2 |
| 20260903125634 | 26 | 58 | 4.8 | 11.3 | 0.00 | 0.00 | 0.00 | 64 | 1010.2 |
| 20260903125130 | 26 | 40 | 3.2 | 8.0 | 0.00 | 0.00 | 0.00 | 64 | 1009.8 |
| 20260903124626 | 26 | 11 | 8.0 | 9.7 | 0.00 | 0.00 | 0.00 | 64 | 1009.8 |
| 20260903124122 | 26 | 43 | 3.2 | 8.0 | 0.00 | 0.00 | 0.00 | 64 | 1009.9 |
| 20260903123618 | 26 | 54 | 3.2 | 8.0 | 0.00 | 0.00 | 0.00 | 64 | 1009.9 |
| 20260903123114 | 26 | 315 | 0.0 | 3.2 | 0.00 | 0.00 | 0.00 | 64 | 1009.8 |
| 20260903122610 | 26 | 48 | 3.2 | 6.4 | 0.00 | 0.00 | 0.00 | 64 | 1009.7 |
| 20260903122106 | 26 | 118 | 3.2 | 6.4 | 0.00 | 0.00 | 0.00 | 64 | 1009.5 |
| 20260903121602 | 26 | 84 | 1.6 | 4.8 | 0.00 | 0.00 | 0.00 | 64 | 1009.7 |
| 20260903121058 | 26 | 356 | 1.6 | 4.8 | 0.00 | 0.00 | 0.00 | 63 | 1009.8 |
| 20260903120554 | 26 | 77 | 3.2 | 6.4 | 0.00 | 0.00 | 0.00 | 63 | 1009.7 |
| 20260903120313 | 26 | 99 | 3.2 | 6.4 | 0.00 | 0.00 | 0.00 | 63 | 1009.5 |
| 20260903115811 | 26 | 8 | 4.8 | 8.0 | 0.00 | 0.00 | 0.00 | 63 | 1009.5 |
| 20260903115044 | 26 | 46 | 6.4 | 9.7 | 0.00 | 0.00 | 0.00 | 64 | 1009.6 |
| 20260903114540 | 25 | 119 | 1.6 | 4.8 | 0.00 | 0.00 | 0.00 | 66 | 1009.6 |
| 20260903114036 | 25 | 330 | 1.6 | 4.8 | 0.00 | 0.00 | 0.00 | 67 | 1009.6 |
| 20260903113532 | 26 | 234 | 3.2 | 4.8 | 0.00 | 0.00 | 0.00 | 67 | 1009.5 |
| 20260903113028 | 26 | 167 | 3.2 | 4.8 | 0.00 | 0.00 | 0.00 | 66 | 1009.4 |
| 20260903112524 | 26 | 162 | 4.8 | 6.4 | 0.00 | 0.00 | 0.00 | 66 | 1009.4 |
| 20260903112241 | 26 | 177 | 3.2 | 6.4 | 0.00 | 0.00 | 0.00 | 66 | 1009.4 |
| 20260903111516 | 26 | 207 | 3.2 | 6.4 | 0.00 | 0.00 | 0.00 | 66 | 1009.5 |
| 20260903111232 | 26 | 198 | 3.2 | 9.7 | 0.00 | 0.00 | 0.00 | 66 | 1009.5 |
| 20260903110508 | 26 | 197 | 3.2 | 6.4 | 0.00 | 0.00 | 0.00 | 66 | 1009.4 |
| 20260903110005 | 26 | 182 | 1.6 | 4.8 | 0.00 | 0.00 | 0.00 | 66 | 1009.5 |
| 20260903105501 | 26 | 214 | 4.8 | 6.4 | 0.00 | 0.00 | 0.00 | 66 | 1009.5 |
| 20260903104957 | 26 | 267 | 1.6 | 3.2 | 0.00 | 0.00 | 0.00 | 65 | 1009.5 |
| 20260903104453 | 26 | 243 | 0.0 | 3.2 | 0.00 | 0.00 | 0.00 | 64 | 1009.5 |
| 20260903103949 | 26 | 49 | 0.0 | 4.8 | 0.00 | 0.00 | 0.00 | 64 | 1009.7 |
| 20260903103445 | 26 | 52 | 3.2 | 6.4 | 0.00 | 0.00 | 0.00 | 64 | 1009.8 |
| 20260903102941 | 26 | 76 | 3.2 | 9.7 | 0.00 | 0.00 | 0.00 | 64 | 1009.8 |
| 20260903102437 | 26 | 44 | 1.6 | 4.8 | 0.00 | 0.00 | 0.00 | 64 | 1009.7 |
| 20260903101933 | 26 | 56 | 3.2 | 11.3 | 0.00 | 0.00 | 0.00 | 64 | 1009.9 |
| 20260903101429 | 26 | 65 | 3.2 | 9.7 | 0.00 | 0.00 | 0.00 | 64 | 1009.9 |
| 20260903100925 | 26 | 65 | 3.2 | 9.7 | 0.00 | 0.00 | 0.00 | 64 | 1009.9 |
| 20260903100421 | 26 | 63 | 6.4 | 12.9 | 0.00 | 0.00 | 0.00 | 64 | 1009.8 |
| 20260903095917 | 26 | 40 | 3.2 | 9.7 | 0.00 | 0.00 | 0.00 | 64 | 1010.1 |